This is the latest recevied weather packets stored in our database for station/object M0TJX-1. If no packets are shown the sender has not sent any weather packets the latest 1 day(s).
| Time | Temp. | Humidity | Pressure | Rain* | Wind** | Luminosity | Snow |
|---|---|---|---|---|---|---|---|
| 1778044394 | 7.78° C | 85% | 1014 hPa | 0 mm | 0.45 m/s, 31° | - | - |
| 1778043494 | 8.33° C | 84% | 1013.9 hPa | 0 mm | 0 m/s | - | - |
| 1778042594 | 8.33° C | 83% | 1013.8 hPa | 0 mm | 0.45 m/s, 28° | - | - |
| 1778041694 | 8.33° C | 82% | 1013.7 hPa | 0 mm | 0.89 m/s, 9° | - | - |
| 1778040794 | 8.33° C | 81% | 1013.7 hPa | 0 mm | 0.45 m/s, 17° | - | - |
| 1778039894 | 8.33° C | 80% | 1013.7 hPa | 0 mm | 0.45 m/s, 28° | - | - |
| 1778038994 | 8.33° C | 79% | 1013.6 hPa | 0 mm | 0.89 m/s, 28° | - | - |
| 1778038094 | 8.89° C | 79% | 1013.7 hPa | 0 mm | 0.89 m/s, 24° | - | - |
| 1778037194 | 8.89° C | 79% | 1013.8 hPa | 0 mm | 0.89 m/s, 34° | - | - |
| 1778036294 | 8.89° C | 79% | 1013.9 hPa | 0 mm | 0.89 m/s, 0° | - | - |
| 1778035394 | 8.89° C | 79% | 1013.7 hPa | 0 mm | 1.34 m/s, 49° | - | - |
| 1778034494 | 9.44° C | 81% | 1013.7 hPa | 0 mm | 0.45 m/s, 25° | - | - |
| 1778033594 | 9.44° C | 81% | 1013.5 hPa | 0 mm | 0.89 m/s, 25° | - | - |
| 1778032694 | 9.44° C | 82% | 1013.5 hPa | 0 mm | 0.45 m/s, 11° | - | - |
| 1778031794 | 9.44° C | 82% | 1013.5 hPa | 0 mm | 0.89 m/s, 28° | - | - |
| 1778030894 | 10° C | 83% | 1013.6 hPa | 0 mm | 0.89 m/s, 19° | - | - |
| 1778029994 | 10° C | 85% | 1013.6 hPa | 0 mm | 0 m/s | - | - |
| 1778029094 | 10° C | 84% | 1013.6 hPa | 0 mm | 0 m/s | - | - |
| 1778028194 | 10° C | 84% | 1013.7 hPa | 0 mm | 0 m/s | - | - |
| 1778027294 | 10° C | 84% | 1013.8 hPa | 0 mm | 0.45 m/s, 348° | - | - |
| 1778026394 | 10° C | 83% | 1013.6 hPa | 0 mm | 0.45 m/s, 37° | - | - |
| 1778025494 | 10° C | 82% | 1013.6 hPa | 0 mm | 0.45 m/s, 11° | - | - |
| 1778024594 | 10° C | 82% | 1013.5 hPa | 0 mm | 0.45 m/s, 28° | - | - |
| 1778023694 | 10° C | 81% | 1013.5 hPa | 0 mm | 0.89 m/s, 308° | - | - |
| 1778022794 | 10° C | 80% | 1013.7 hPa | 0 mm | 0.89 m/s, 25° | - | - |
* Rain latest hour (hover to see other rain measurements)
** Current wind speed in m/s (hover to see current wind gust speed)